Lid_Strength_Index
-1 -0 -0 -1 -1 -1 -1 -1 -1 -1 -1 -1 -1 -0 -0 -1 -1 -1 -1 2 1 -1 -2 -2 -2 -2 -2 -2 -2 -2 -2 -1 -1 -1 -1 -1 -1 -1 -1 -1 -1 -1 -1
-0 -0 0 0 0 0 -0 -0 -0 -0 -0 -0 0 -0 -0 -0 -1 -1 -1 -1 1 0 -1 -2 -2 -2 -2 -2 -2 -2 -2 -2 -1 -1 -2 -1 -1 -1 -1 -1 -1 -1 -1
-0 -0 0 0 0 0 1 1 1 1 1 1 1 1 0 0 0 0 -1 -1 -0 1 0 -1 -2 -2 -2 -2 -2 -2 -1 -1 -1 -1 -1 -1 -1 -1 -1 -1 -1 -1 -1
-0 0 0 0 0 0 1 1 1 1 1 2 1 1 1 0 0 0 -0 -0 -1 -0 -0 -1 -1 -1 -2 -2 -2 -1 -1 -1 -1 -1 -1 -1 -1 -1 -1 -1 -1 -1 -1
0 1 1 0 0 1 1 1 2 2 2 2 1 0 -0 -0 -0 -0 -0 -0 -0 -0 -1 0 1 0 -1 -2 -1 -1 -2 -1 -1 -1 -1 -0 0 0 -0 -0 -0 -0 -0
1 1 2 1 1 1 1 1 1 0 1 0 1 1 0 0 -0 -0 0 1 1 0 0 1 0 0 0 -1 -1 -2 -2 -1 -1 -1 -0 1 1 1 1 1 1 -0 0
2 1 0 1 1 1 1 1 1 2 2 1 2 2 1 1 1 1 1 1 1 1 2 2 2 2 1 -0 -1 -2 -2 -2 -1 -1 -0 1 0 1 1 0 -0 -0 1
4 4 3 3 3 3 3 3 3 3 2 2 3 3 5 3 2 2 1 1 1 1 2 3 3 4 3 2 2 -1 -2 -1 -2 -1 -0 -0 -0 0 -0 -0 -0 -0 1
6 5 4 4 4 4 4 4 4 4 4 3 2 4 6 6 5 2 3 2 2 3 3 3 4 4 5 4 3 1 -0 -1 -2 -1 -0 -0 0 0 0 -0 -0 -0 0
7 7 6 6 5 5 5 5 5 5 4 5 4 3 2 3 6 6 5 5 4 4 3 4 4 4 5 5 5 5 5 2 -1 -1 -0 0 1 1 1 0 0 0 1
8 8 8 7 7 7 6 6 6 6 5 5 5 5 4 3 3 5 6 4 6 5 4 4 4 4 5 6 6 5 5 4 1 0 0 1 1 1 1 0 -0 0 1
9 9 9 9 9 8 8 8 7 7 7 6 6 6 6 5 5 4 5 4 4 4 5 4 4 6 5 7 7 7 5 4 2 1 2 1 1 1 1 -0 -0 0 1
11 11 11 10 10 10 10 9 9 8 8 8 7 6 5 4 4 4 4 4 5 3 5 5 5 5 6 5 7 8 7 4 3 2 2 2 1 1 1 1 1 1 2
13 12 12 12 11 11 11 11 10 9 8 7 7 6 6 5 4 3 3 3 5 4 3 4 6 5 5 6 6 8 7 5 3 2 3 2 2 2 1 1 1 1 2
14 13 13 13 13 12 11 10 9 9 8 8 7 7 7 6 4 3 2 2 4 6 5 3 6 6 5 5 7 8 7 6 4 3 3 3 3 2 1 1 1 2 2
14 14 14 13 12 12 11 11 11 10 10 9 8 8 7 6 5 4 4 3 4 4 6 3 2 4 7 8 9 8 7 8 6 4 3 3 3 3 2 1 2 3 2
15 14 13 13 13 13 12 12 12 11 11 10 9 9 8 7 7 7 6 5 5 5 7 5 3 5 9 9 10 9 9 8 6 5 3 4 4 3 3 2 2 3 3
14 15 14 13 13 13 13 12 12 11 11 11 10 10 9 9 8 8 7 7 7 6 7 8 6 5 9 9 9 11 11 10 9 7 4 4 4 4 3 3 3 4 3
14 14 14 14 13 13 13 12 11 11 11 11 10 10 10 10 10 9 9 9 8 8 8 8 9 6 8 11 11 11 11 10 11 8 5 4 5 4 4 4 4 5 4
15 15 14 14 14 13 13 12 11 11 11 11 11 11 11 11 11 11 10 10 10 10 10 10 10 9 8 10 11 12 13 12 12 10 8 7 6 6 5 5 5 6 5
15 15 15 15 14 13 12 12 12 12 12 12 12 12 11 12 11 11 12 12 12 12 12 12 12 11 10 12 13 11 11 12 12 10 9 9 8 7 7 6 7 7 5
16 15 15 15 14 14 12 11 12 13 13 13 13 13 13 12 12 12 12 11 12 13 13 13 12 12 11 10 9 11 12 13 15 11 10 10 9 10 9 8 8 7 6
16 16 15 15 15 14 12 12 12 13 14 14 14 14 14 14 13 14 13 12 12 11 11 11 12 11 11 10 9 10 11 11 11 10 11 11 11 11 10 10 8 8 7
16 16 16 16 16 15 13 13 13 14 15 15 15 15 15 15 14 14 14 14 14 13 12 11 11 10 10 9 9 8 10 11 9 10 11 13 12 13 12 11 8 8 8
17 17 16 16 17 16 14 14 14 15 16 16 15 15 15 16 14 13 15 15 14 14 12 11 10 9 9 8 7 8 9 10 12 13 11 11 13 13 15 14 10 8 8
18 17 17 17 17 17 16 15 15 16 17 16 16 16 15 15 14 13 14 14 15 14 14 13 12 11 9 9 7 6 7 8 9 14 11 12 14 15 18 16 14 10 10